Location: *
(49.6213°S, 168.1795°W)
Time: 14:32:40
(UTC+00:00)

Daily predictions for brighter satellites

Satellite Brightness Start Highest point End
(mag) Time Altitude Azimuth Time Altitude Azimuth Time Altitude Azimuth
ATLAS 2AS CENTAUR R/B 4.2 13:14:07 27° SSE 13:14:07 27° SSE 13:17:30 10° SE
CZ-4C R/B 3.8 13:31:30 41° E 13:31:30 41° E 13:36:48 10° SE
SL-16 R/B 3.7 13:26:02 10° SSE 13:30:33 39° ESE 13:30:33 39° ESE
SL-16 R/B 3.2 14:08:58 42° SSE 14:08:58 42° SSE 14:12:42 10° SSE
Cosmos 2360 Rocket 3.1 14:12:03 46° E 14:12:03 46° E 14:16:42 10° SE
Cosmos 2322 Rocket 3.0 14:17:15 47° SSE 14:17:15 47° SSE 14:21:17 10° SSE
Cosmos 1980 Rocket 3.8 14:20:34 25° SSW 14:20:34 25° SSW 14:23:46 10° SSE
CZ-3A R/B 3.4 14:18:44 73° SSW 14:18:49 73° SSW 14:25:12 10° ESE
Cosmos 2034 Rocket 4.4 14:20:37 57° S 14:20:37 57° S 14:25:30 10° S
ATLAS CENTAUR R/B 3.6 14:27:00 22° SSE 14:27:00 22° SSE 14:28:42 10° SE
Cosmos 2333 Rocket 4.0 14:23:33 21° NE 14:25:44 27° ENE 14:30:29 10° SE
USA 229 DEB 3.7 14:26:48 48° SSW 14:28:51 73° SE 14:35:29 10° NE
USA 229 3.8 14:26:50 46° SSW 14:28:59 73° SE 14:35:36 10° NE
NOSS 3-1 (A) 3.8 14:35:10 29° SSW 14:38:35 61° SE 14:44:17 10° ENE
Cosmos 2278 Rocket 3.8 14:34:35 10° SSW 14:39:46 33° SE 14:44:53 10° ENE
BREEZE M DEB (TANK) 4.4 14:49:33 30° NNE 14:50:37 33° NE 15:03:26 10° ESE
SL-8 R/B 4.3 14:51:46 55° ENE 14:51:46 55° ENE 14:55:40 10° E
Cosmos 2056 Rocket 3.6 14:48:50 10° SSW 14:54:21 79° ESE 14:59:49 10° NNE
USA 215 3.1 14:48:30 10° NE 14:55:08 81° NW 14:56:52 53° WSW
Cosmos 2195 Rocket 4.3 14:50:19 10° SSW 14:56:18 71° W 14:56:18 71° W
Meteor 1-11 Rocket 4.2 14:57:43 47° SW 14:57:43 47° SW 15:02:21 10° S
Cosmos 1627 Rocket 4.4 14:52:07 10° SSW 14:58:34 76° W 14:59:58 56° NNW
STARLINK-1084 4.4 15:02:06 51° SE 15:02:06 51° SE 15:05:38 10° E
ATLAS 2AS CENTAUR R/B 4.2 15:01:33 17° SW 15:04:26 23° S 15:09:31 10° SE
Meteor 1-28 Rocket 4.1 15:02:13 10° SSE 15:05:13 46° SE 15:05:13 46° SE
NOSS 3-1 (C) 3.2 15:05:22 63° WSW 15:06:11 72° NW 15:11:46 10° NNE
STARLINK-1098 4.2 15:06:53 55° SE 15:06:53 55° SE 15:10:39 10° E
ISS -2.1 15:09:30 35° ESE 15:09:30 35° ESE 15:11:42 10° E
STARLINK-1109 4.5 15:10:30 44° NE 15:10:30 44° NE 15:13:28 10° ENE
Cosmos 2219 Rocket 2.9 15:07:00 28° N 15:09:47 52° ENE 15:15:19 10° SE
STARLINK-1123 4.1 15:11:42 59° SSE 15:11:42 59° SSE 15:15:41 10° E
Cosmos 923 Rocket 4.1 15:13:17 60° SW 15:13:17 60° SW 15:18:30 10° SSE
STARLINK-1091 4.3 15:15:16 48° NE 15:15:16 48° NE 15:18:25 10° NE
SL-16 R/B 3.1 15:09:51 10° S 15:15:37 39° WSW 15:15:37 39° WSW
STARLINK-1097 3.9 15:16:27 61° SSE 15:16:27 61° SSE 15:20:39 10° E
Cosmos 2237 4.3 15:18:08 56° W 15:18:42 58° SW 15:24:26 10° SSE
CZ-4C R/B 2.9 15:16:43 46° W 15:18:48 61° SW 15:25:25 10° SE
BREEZE-M DEB (TANK) 3.0 15:18:11 63° WNW 15:18:59 86° N 15:31:53 10° E
STARLINK-1072 4.1 15:20:07 51° NNE 15:20:07 51° NNE 15:23:25 10° NE
STARLINK-1099 3.9 15:21:14 62° S 15:21:27 63° SSE 15:25:39 10° E
Okean 2 Rocket 4.4 15:17:54 10° NNE 15:22:09 40° E 15:26:27 10° SSE
Sich 1 Rocket 4.0 15:20:04 27° N 15:22:30 65° E 15:27:07 10° SSE
STARLINK-1225 4.3 15:22:33 43° NNE 15:22:53 44° NE 15:26:56 10° ESE
STARLINK-1201 4.1 15:23:49 44° E 15:23:49 44° E 15:26:15 10° ESE
Cosmos 1975 Rocket 3.0 15:19:41 10° SSW 15:23:47 71° SW 15:23:47 71° SW
STARLINK-1096 4.0 15:24:54 53° NNE 15:24:54 53° NNE 15:28:22 10° NE
H-2A R/B 2.1 15:21:07 10° SSE 15:25:46 87° W 15:26:44 56° NNW
Meteor 2-13 Rocket 4.3 15:19:58 10° SSW 15:26:07 65° W 15:32:08 10° N
STARLINK-1104 3.8 15:26:01 60° SSW 15:26:27 65° SSE 15:30:39 10° E
STARLINK-1230 4.2 15:27:20 44° N 15:27:51 47° NE 15:31:55 10° ESE
Cosmos 2322 3.6 15:26:20 45° NW 15:28:10 80° WSW 15:33:58 10° SSE
STARLINK-1079 3.9 15:29:41 54° N 15:29:41 54° N 15:33:19 10° NE
COSMOS 2428 3.0 15:25:45 24° N 15:29:16 67° ENE 15:35:00 10° SSE
Okean O Rocket 2.9 15:25:23 10° NE 15:29:38 42° ESE 15:33:55 10° S
Cosmos 1452 Rocket 4.0 15:24:30 10° SSW 15:29:49 61° ESE 15:35:03 10° NE
Cosmos 1680 Rocket 3.6 15:29:44 52° W 15:30:30 57° WSW 15:35:50 10° SSE
Cosmos 1544 3.5 15:30:12 40° NNE 15:31:21 64° E 15:35:07 10° SSE
STARLINK-1144 3.8 15:30:48 57° SW 15:31:27 67° SSE 15:35:39 10° E
Okean 2 4.1 15:28:02 10° SSW 15:30:58 41° SSW 15:30:58 41° SSW
CZ-4C R/B 3.2 15:28:47 10° SSE 15:31:57 62° S 15:31:57 62° S
Cosmos 2333 4.1 15:30:24 40° NW 15:32:37 81° WSW 15:38:29 10° SSE
STARLINK-1243 4.2 15:32:07 45° N 15:32:48 50° NNE 15:36:54 10° ESE
SAR-Lupe-4 4.2 15:29:13 10° SSE 15:32:51 56° E 15:34:32 28° NNE
METEOR-M 4.0 15:28:05 10° N 15:33:29 75° WNW 15:38:57 10° SSW
STARLINK-1116 3.9 15:34:28 53° NNW 15:34:28 53° NNW 15:38:15 10° NE
Meteor 1-21 4.2 15:28:50 10° SSW 15:34:35 86° ESE 15:40:20 10° NNE
Cosmos 1975 2.8 15:34:37 51° NNW 15:35:38 86° WSW 15:39:50 10° S
STARLINK-1103 3.8 15:35:34 53° SW 15:36:24 69° SSE 15:40:38 10° E
SL-08 R/B 3.5 15:32:31 10° S 15:37:07 50° WSW 15:37:26 49° W
STARLINK-1236 4.1 15:36:54 45° N 15:37:45 54° NNE 15:41:54 10° ESE
CZ-4B R/B 4.5 15:34:09 10° NNE 15:38:33 80° WNW 15:43:02 10° SSW
Cosmos 2026 Rocket 4.3 15:32:55 10° SSW 15:38:54 42° W 15:41:07 32° NW
Cosmos 1743 3.7 15:40:54 34° SSW 15:40:54 34° SSW 15:43:34 10° S
STARLINK-1101 3.8 15:40:22 48° SW 15:41:25 72° SSE 15:45:39 10° ENE
FENGYUN 3A 3.6 15:37:44 10° N 15:43:05 60° WNW 15:48:32 10° SSW
STARLINK-1094 3.9 15:44:02 48° NW 15:44:04 48° NNW 15:48:07 10° NE
STARLINK-1102 3.7 15:45:10 44° SW 15:46:25 75° SSE 15:50:39 10° ENE
ALOS 2.3 15:42:08 10° N 15:46:46 54° W 15:51:27 10° SSW
STARLINK-1269 3.9 15:46:27 41° NNW 15:47:40 61° NNE 15:51:52 10° ESE
STARLINK-1228 3.1 15:48:28 57° SSE 15:48:28 57° SSE 15:51:04 10° ESE
Cosmos 1634 Rocket 4.3 15:46:36 32° WNW 15:48:51 44° WSW 15:54:57 10° S
STARLINK-1117 4.0 15:48:49 45° NW 15:49:02 45° NW 15:53:02 10° NE
Cosmos 2084 3.4 15:48:47 48° WNW 15:49:49 69° SW 15:54:07 10° SE
SAR-Lupe-1 4.1 15:46:33 10° SSE 15:50:15 80° ENE 15:52:39 20° N
STARLINK-1111 3.7 15:49:55 40° WSW 15:51:23 78° SSE 15:55:37 10° ENE
CZ-4B R/B 2.2 15:48:27 10° SSE 15:51:45 52° ENE 15:55:03 10° N
SL-16 R/B 3.6 15:50:50 21° SW 15:51:54 22° SW 15:56:18 10° S
STARLINK-1200 3.8 15:51:14 39° NW 15:52:39 65° NNE 15:56:51 10° ESE
STARLINK-1078 4.0 15:53:36 41° NW 15:53:59 42° NW 15:57:57 10° NE
SMAP 4.4 15:49:53 10° NE 15:54:17 41° ESE 15:58:44 10° S
Cosmos 2266 Rocket 3.9 15:48:31 10° S 15:54:46 88° W 16:01:03 10° N
Cosmos 2360 Rocket 3.0 15:53:50 30° W 15:55:23 35° SW 16:00:39 10° SSE
STARLINK-1073 3.6 15:54:42 36° WSW 15:56:22 81° SSE 16:00:36 10° ENE
ERS-2 4.0 15:53:58 10° SSW 15:55:35 18° SW 15:55:35 18° SW
Cosmos 1842 3.4 15:53:29 10° SSW 15:57:18 47° W 16:01:04 10° NNW
STARLINK-1192 3.8 15:56:01 36° NW 15:57:38 69° NNE 16:01:51 10° ESE
Cosmos 1782 Rocket 4.0 15:57:35 37° WNW 15:58:31 41° WSW 16:02:50 10° S
Helios 1A Rocket 4.2 15:54:41 10° NE 15:58:39 45° ESE 16:02:42 10° S
NOSS 2-3 (E) 4.5 15:51:42 10° SW 15:58:47 59° WNW 16:04:11 10° NNE
STARLINK-1108 4.1 15:58:24 37° WNW 15:58:57 39° NW 16:02:52 10° NNE
Cosmos 2322 Rocket 3.6 15:59:05 20° WSW 16:00:26 22° SW 16:04:48 10° S
STARLINK-1121 3.6 15:59:29 33° WSW 16:01:21 84° SSE 16:05:35 10° ENE
CZ-4B DEB 4.2 15:56:21 10° N 16:01:54 62° WNW 16:07:31 10° SSW
Cosmos 1025 Rocket 3.0 15:58:03 10° S 16:02:32 89° E 16:06:59 10° N
STARLINK-1244 3.7 16:00:48 33° NW 16:02:35 73° NNE 16:06:49 10° ESE
STARLINK-1071 4.3 16:03:11 34° WNW 16:03:53 37° NW 16:07:46 10° NNE
ATLAS CENTAUR R/B 3.3 16:03:11 16° SW 16:04:17 17° SSW 16:07:14 10° SSE
Cosmos 1980 Rocket 4.4 16:03:17 10° SW 16:04:46 11° SSW 16:06:14 10° S
PSLV R/B 4.1 16:02:12 10° NNW 16:05:51 39° W 16:09:29 10° SSW
STARLINK-1106 3.6 16:04:16 30° WSW 16:06:21 88° SE 16:10:34 10° ENE
STARLINK-1138 3.7 16:05:35 30° NW 16:07:34 77° NNE 16:11:48 10° ESE
STARLINK-1110 4.4 16:07:58 31° WNW 16:08:51 34° NW 16:12:40 10° NNE
COBE Rocket 4.1 16:04:19 10° S 16:09:29 57° WSW 16:14:30 10° NNW
Cosmos 2333 Rocket 2.3 16:05:36 20° NW 16:09:35 61° WSW 16:15:23 10° SSE
Cosmos 2292 Rocket 3.6 16:05:52 10° SSW 16:09:56 72° W 16:15:18 10° N
Radarsat Rocket 4.2 16:03:40 10° NNE 16:09:59 84° WNW 16:17:13 10° SSW
ERBS 3.3 16:09:23 29° SW 16:10:16 34° SSW 16:13:27 10° SE
Landsat 5 3.8 16:06:40 10° S 16:10:48 43° WSW 16:12:58 23° NW
STARLINK-1112 3.6 16:09:04 27° WSW 16:11:19 88° NW 16:15:33 10° ENE
STARLINK-1143 3.7 16:10:21 28° WNW 16:12:32 81° NNE 16:16:47 10° ESE
Cosmos 1655 Rocket 4.2 16:06:28 10° SSW 16:12:41 51° W 16:18:51 10° NNW
CRYOSAT 2 4.3 16:08:03 10° N 16:12:59 70° W 16:17:59 10° S
STARLINK-1124 4.5 16:12:44 28° WNW 16:13:46 32° NW 16:17:31 10° NNE
CZ-3 R/B 4.4 16:01:44 18° WNW 16:16:06 29° NNW 16:24:35 10° NNE
STARLINK-1128 3.6 16:13:52 24° WSW 16:16:19 84° NNW 16:20:33 10° ENE
Cosmos 2237 Rocket 2.7 16:11:13 10° NNW 16:16:52 64° ENE 16:22:34 10° SSE
STARLINK-1241 3.6 16:15:11 25° WNW 16:17:33 86° NNE 16:21:48 10° ESE
USA 229 DEB 4.3 16:14:24 14° WSW 16:19:15 30° WNW 16:24:47 10° N
USA 229 4.3 16:14:26 13° WSW 16:19:22 30° WNW 16:24:56 10° N
STARLINK-1233 3.2 16:19:37 31° W 16:20:53 57° SSW 16:24:03 10° ESE
STARLINK-1234 3.3 16:19:54 30° WSW 16:21:10 51° SSW 16:24:18 10° ESE
STARLINK-1113 3.6 16:18:40 22° WSW 16:21:19 80° NNW 16:25:32 10° ENE
STARLINK-1212 3.2 16:20:02 31° W 16:21:20 57° SSW 16:24:30 10° ESE
STARLINK-1105 3.2 16:20:30 30° W 16:21:48 57° SSW 16:24:57 10° ESE
STARLINK-1209 3.3 16:20:38 29° WSW 16:21:52 49° S 16:24:54 10° ESE
Cosmos 1536 Rocket 3.6 16:17:23 10° SSW 16:21:53 65° W 16:26:20 10° N
STARLINK-1206 3.2 16:20:53 30° W 16:22:13 57° SSW 16:25:23 10° ESE
Cosmos 304 Rocket 4.3 16:17:28 10° SSW 16:22:21 62° ESE 16:27:10 10° NE
STARLINK-1239 3.6 16:19:55 23° WNW 16:22:29 89° N 16:26:44 10° ESE
STARLINK-1247 3.2 16:21:19 30° W 16:22:40 57° SSW 16:25:51 10° ESE
Cosmos 2297 4.5 16:17:03 10° SSW 16:22:44 55° SE 16:28:19 10° NE
STARLINK-1227 3.2 16:21:47 29° W 16:23:08 56° SSW 16:26:18 10° ESE
STARLINK-1218 3.2 16:22:11 29° W 16:23:34 56° SSW 16:26:45 10° ESE
STARLINK-1226 3.2 16:22:38 28° W 16:24:02 56° SSW 16:27:11 10° ESE
Cosmos 2278 Rocket 2.3 16:18:34 10° SW 16:24:08 54° WNW 16:29:39 10° N
STARLINK-1254 3.2 16:23:05 28° W 16:24:30 56° SSW 16:27:39 10° ESE
STARLINK-1215 3.2 16:23:29 28° W 16:24:56 56° SSW 16:28:06 10° ESE
GP-B 4.0 16:20:37 10° NNE 16:24:59 53° E 16:29:26 10° S
Cosmos 1420 Rocket 4.5 16:20:14 10° SW 16:25:08 38° WNW 16:30:02 10° N
STARLINK-1231 3.2 16:23:55 27° W 16:25:23 55° SSW 16:28:32 10° ESE
In-Cosmos 22 4.3 16:20:00 10° S 16:25:36 82° ESE 16:31:16 10° NNE
STARLINK-1119 3.6 16:23:25 20° WSW 16:26:15 76° NNW 16:30:28 10° ENE
STARLINK-1232 3.2 16:24:48 27° W 16:26:17 55° SSW 16:29:28 10° ESE
STARLINK-1217 3.2 16:25:13 26° W 16:26:44 55° SSW 16:29:54 10° ESE
STARLINK-1208 3.2 16:25:41 26° W 16:27:12 54° SSW 16:30:21 10° ESE
STARLINK-1240 3.6 16:24:43 21° WNW 16:27:29 87° SSW 16:31:44 10° ESE
STARLINK-1229 3.2 16:26:05 26° W 16:27:38 54° SSW 16:30:48 10° ESE
STARLINK-1271 3.2 16:26:31 26° W 16:28:05 54° SSW 16:31:15 10° ESE
CZ-4B R/B 3.3 16:22:30 10° N 16:28:08 60° WNW 16:33:46 10° SSW
STARLINK-1270 3.3 16:26:57 25° W 16:28:33 54° SSW 16:31:43 10° ESE
STARLINK-1154 3.3 16:27:23 25° W 16:28:59 54° SSW 16:32:09 10° ESE
NOSS 3-1 (A) 4.0 16:23:27 10° SW 16:29:03 33° WNW 16:33:59 10° N
STARLINK-1197 3.3 16:28:15 24° W 16:29:54 53° SSW 16:33:04 10° ESE
STARLINK-1189 3.3 16:28:41 24° W 16:30:21 53° SSW 16:33:30 10° ESE
STARLINK-1198 3.3 16:29:07 24° W 16:30:47 53° SSW 16:33:57 10° ESE
STARLINK-1114 3.6 16:28:12 18° WSW 16:31:14 72° NNW 16:35:25 10° NE
STARLINK-1188 3.3 16:29:33 24° W 16:31:15 53° SSW 16:34:25 10° ESE
STARLINK-1235 3.4 16:30:15 23° WSW 16:31:58 49° S 16:35:04 10° ESE
STARLINK-1187 3.3 16:30:41 23° WSW 16:32:23 50° SSW 16:35:30 10° ESE
STARLINK-1216 3.6 16:29:31 19° WNW 16:32:28 83° SSW 16:36:44 10° ESE
STARLINK-1199 3.3 16:31:29 22° W 16:33:15 52° SSW 16:36:24 10° ESE
SL-8 R/B 3.8 16:29:44 19° W 16:33:16 72° N 16:38:09 10° ENE
STARLINK-1191 3.3 16:31:55 22° W 16:33:43 52° SSW 16:36:50 10° ESE
STARLINK-1210 3.3 16:32:21 22° W 16:34:10 52° SSW 16:37:18 10° ESE
STARLINK-1221 3.3 16:32:47 22° W 16:34:36 52° SSW 16:37:43 10° ESE
Cosmos 1674 3.9 16:30:53 10° S 16:34:42 46° ESE 16:38:28 10° NNE
STARLINK-1219 3.3 16:33:13 21° W 16:35:04 51° SSW 16:38:12 10° ESE
Envisat 3.3 16:30:03 10° NNE 16:35:09 74° ESE 16:40:21 10° S
STARLINK-1222 3.3 16:33:39 21° W 16:35:30 51° SSW 16:38:38 10° ESE
Cosmos 1943 Rocket 3.8 16:30:36 10° SSW 16:35:49 34° SE 16:40:56 10° ENE
STARLINK-1211 3.3 16:34:05 21° W 16:35:58 51° S 16:39:06 10° ESE
STARLINK-1130 (DARKSAT) 3.7 16:32:59 17° WSW 16:36:12 68° NNW 16:40:23 10° NE
STARLINK-1214 3.3 16:34:31 21° W 16:36:25 51° SSW 16:39:33 10° ESE
STARLINK-1245 3.4 16:34:56 20° W 16:36:52 51° S 16:40:00 10° ESE
H-2A R/B 2.7 16:32:56 10° N 16:36:52 65° W 16:40:49 10° SSW
STARLINK-1238 3.3 16:35:24 20° W 16:37:19 51° SSW 16:40:27 10° ESE
STARLINK-1237 3.6 16:34:17 17° WNW 16:37:26 80° SSW 16:41:42 10° ESE
STARLINK-1205 3.4 16:36:14 20° W 16:38:13 51° S 16:41:22 10° ESE
STARLINK-1204 3.4 16:36:39 20° W 16:38:39 50° S 16:41:48 10° ESE
USA 215 4.1 16:33:13 10° N 16:38:46 28° NW 16:44:13 11° WSW
BREEZE-M DEB (TANK) 3.6 16:30:11 10° WSW 16:40:19 87° SSE 16:43:34 10° ENE
STARLINK-1084 3.7 16:37:46 15° WSW 16:41:10 64° NNW 16:45:20 10° NE
STARLINK-1202 3.7 16:39:04 16° WNW 16:42:26 77° SSW 16:46:41 10° ESE
Cosmos 1707 3.1 16:39:53 10° SSW 16:43:36 40° W 16:47:15 10° NNW
BREEZE-M DEB (TANK) 3.3 16:41:56 16° W 16:44:18 72° NNW 16:52:20 10° ENE
Cosmos 2369 Rocket 3.9 16:39:38 10° SSW 16:44:42 32° SE 16:49:46 10° ENE
NOAA 12 4.2 16:39:37 10° NNE 16:44:55 84° ESE 16:50:19 10° SSW
ISS -3.5 16:42:30 16° WSW 16:45:08 58° NNW 16:48:32 10° NE
Cosmos 1689 Rocket 2.2 16:42:27 10° S 16:45:32 58° WSW 16:48:33 10° NNW
STARLINK-1098 3.8 16:42:33 14° WSW 16:46:08 60° NNW 16:50:17 10° NE
Abrixas rocket 2.8 16:44:15 12° NW 16:46:51 44° NNE 16:49:46 10° E
STARLINK-1123 3.9 16:47:21 12° WSW 16:51:08 56° NNW 16:55:15 10° NE
Cosmos 1242 Rocket 3.0 16:48:13 10° SSW 16:51:45 40° W 16:55:12 10° NNW
Cosmos 1300 Rocket 4.2 16:48:07 10° NW 16:52:12 34° WSW 16:56:22 10° S
STARLINK-1246 3.7 16:48:39 13° WNW 16:52:26 71° SSW 16:56:40 10° ESE
STARLINK-1203 3.8 16:48:58 13° W 16:52:47 69° SSW 16:57:04 10° ESE
Cosmos 371 Rocket 3.8 16:49:02 10° SW 16:53:34 37° WNW 16:58:03 10° N
Cosmos 2219 Rocket 3.0 16:48:52 10° WNW 16:53:59 34° SW 16:59:11 10° SSE
Cosmos 1805 4.4 16:50:12 10° N 16:54:01 50° E 16:57:53 10° SSE
Cosmos 2098 Rocket 3.7 16:47:54 10° SSW 16:54:16 64° W 16:59:17 10° N
Cosmos 1271 Rocket 3.1 16:50:29 10° SSW 16:54:26 47° W 16:58:20 10° N
Cosmos 1331 Rocket 4.0 16:50:40 10° SSW 16:56:04 77° WNW 17:01:24 10° NNE
STARLINK-1097 3.9 16:52:06 11° WSW 16:56:04 53° NNW 17:00:09 10° NE
Cosmos 1048 Rocket 4.0 16:50:49 10° NNW 16:56:11 73° WSW 17:01:32 10° SSE
ATLAS 2AS CENTAUR R/B 4.0 16:51:28 10° SW 16:57:13 34° SSE 17:03:19 10° E
STARLINK-1224 3.8 16:53:25 11° W 16:57:24 69° SSW 17:01:38 10° ESE
STARLINK-1201 3.6 16:56:22 12° W 16:59:21 47° S 17:02:34 10° ESE
Okean 2 Rocket 4.2 16:56:35 10° NW 17:00:23 26° WSW 17:04:13 10° SSW
H-2A R/B 4.0 16:58:35 10° SSW 17:01:01 14° SW 17:03:26 10° W
STARLINK-1099 4.0 16:56:57 10° WSW 17:01:02 49° NNW 17:05:06 10° NE
CZ-2C R/B 3.2 16:58:59 10° SSW 17:01:24 30° W 17:05:57 10° NNW
Cosmos 2151 Rocket 4.3 16:57:24 10° NW 17:01:30 34° WSW 17:05:41 10° S
STARLINK-1225 3.8 16:58:14 10° W 17:02:25 66° SSW 17:06:38 10° ESE
STARLINK-67 3.5 17:03:09 10° WSW 17:05:39 36° S 17:08:09 10° ESE
STARLINK-1104 4.1 17:01:56 10° WSW 17:06:00 46° NW 17:10:02 10° NE
Okean O Rocket 2.7 17:02:23 10° NNW 17:06:08 25° W 17:09:55 10° SW
Feng Yun 1-1 Rocket 4.4 17:00:45 10° N 17:06:35 67° WNW 17:12:36 10° SSW
STARLINK-1230 3.8 17:03:12 10° W 17:07:24 64° SSW 17:11:37 10° ESE
CZ-4C R/B 3.8 17:02:28 10° WSW 17:08:36 28° SSW 17:13:55 10° SE
Meteor 2-21 4.5 17:03:13 10° SSW 17:09:27 68° W 17:15:35 10° N
Cosmos 1553 Rocket 4.3 17:04:27 10° N 17:10:55 82° E 17:17:23 10° S
STARLINK-1144 4.2 17:06:56 10° WSW 17:10:58 43° NW 17:14:57 10° NE
STARLINK-1243 3.9 17:08:12 10° W 17:12:23 63° SSW 17:16:36 10° ESE
Cosmos 1455 Rocket 4.3 17:08:16 10° NNE 17:12:36 50° E 17:16:56 10° SSE
KORONAS-FOTON 3.9 17:08:53 10° SSW 17:12:53 73° W 17:16:51 10° N
COSMO-SKYMED 1 3.6 17:08:56 10° SSE 17:13:19 55° E 17:17:37 10° N
COSMOS 2428 3.7 17:09:06 10° WNW 17:14:02 29° SW 17:19:01 10° SSE
CZ-4 R/B 2.2 17:10:56 10° NNE 17:15:09 60° ESE 17:19:24 10° S
Meteor 1-24 Rocket 4.1 17:09:23 10° S 17:15:26 80° ESE 17:21:31 10° NNE
STARLINK-1103 4.3 17:11:55 10° WSW 17:15:53 40° NW 17:19:50 10° NNE
NOSS 0 Rocket 4.3 17:11:05 10° NW 17:17:05 48° SW 17:23:10 10° SSE
